Time,TemperatureF,DewpointF,PressureIn,WindDirection,WindDirectionDegrees,WindSpeedMPH,WindSpeedGustMPH,Humidity,HourlyPrecipIn,Conditions,Clouds,dailyrainin,SoftwareType,DateUTC
2013-03-28 04:54:00,33.1,14.0,30.06,North,-999,0.0,0.0,45,0.00,,,-99.99,FreeWX 2.04,2013-03-28 08:54:00,
2013-03-28 07:22:00,30.9,15.8,30.09,North,-999,0.0,0.0,53,0.00,,,-99.99,FreeWX 2.04,2013-03-28 11:22:00,
2013-03-28 07:27:00,30.9,16.3,30.09,North,-999,0.0,0.0,54,0.00,,,-99.99,FreeWX 2.04,2013-03-28 11:27:00,
2013-03-28 07:32:00,31.1,16.3,30.09,North,-999,0.0,0.0,54,0.00,,,-99.99,FreeWX 2.04,2013-03-28 11:32:00,
2013-03-28 07:37:00,31.3,16.5,30.09,North,-999,0.0,0.0,54,0.00,,,-99.99,FreeWX 2.04,2013-03-28 11:37:00,
2013-03-28 07:42:00,31.6,16.9,30.09,North,-999,0.0,0.0,54,0.00,,,-99.99,FreeWX 2.04,2013-03-28 11:42:00,
2013-03-28 07:47:00,32.0,17.2,30.09,North,-999,0.0,0.0,54,0.00,,,-99.99,FreeWX 2.04,2013-03-28 11:47:00,
2013-03-28 07:52:00,32.4,17.6,30.09,North,-999,0.0,0.0,54,0.00,,,-99.99,FreeWX 2.04,2013-03-28 11:52:00,
2013-03-28 07:57:00,32.5,17.8,30.09,North,-999,0.0,0.0,54,0.00,,,-99.99,FreeWX 2.04,2013-03-28 11:57:00,
2013-03-28 08:02:00,33.1,18.3,30.09,North,-999,0.0,0.0,54,0.00,,,-99.99,FreeWX 2.04,2013-03-28 12:02:00,
2013-03-28 08:07:00,33.3,18.0,30.09,North,-999,0.0,0.0,53,0.00,,,-99.99,FreeWX 2.04,2013-03-28 12:07:00,
2013-03-28 08:12:00,33.8,18.5,30.09,North,-999,0.0,0.0,53,0.00,,,-99.99,FreeWX 2.04,2013-03-28 12:12:00,
2013-03-28 08:17:00,34.3,18.1,30.09,North,-999,0.0,4.5,51,0.00,,,-99.99,FreeWX 2.04,2013-03-28 12:17:00,
2013-03-28 08:22:00,34.9,18.1,30.09,North,-999,0.0,5.4,50,0.00,,,-99.99,FreeWX 2.04,2013-03-28 12:22:00,
2013-03-28 08:27:00,35.2,16.5,30.09,North,-999,0.0,3.1,46,0.00,,,-99.99,FreeWX 2.04,2013-03-28 12:27:00,
2013-03-28 08:32:00,35.8,17.1,30.09,North,-999,0.0,0.0,46,0.00,,,-99.99,FreeWX 2.04,2013-03-28 12:32:00,
2013-03-28 08:37:00,36.5,17.2,30.09,North,-999,0.0,4.5,45,0.00,,,-99.99,FreeWX 2.04,2013-03-28 12:37:00,
2013-03-28 08:42:00,36.7,15.3,30.09,North,-999,0.0,6.3,41,0.00,,,-99.99,FreeWX 2.04,2013-03-28 12:42:00,
2013-03-28 08:47:00,36.7,14.7,30.09,North,-999,0.0,4.0,40,0.00,,,-99.99,FreeWX 2.04,2013-03-28 12:47:00,
2013-03-28 08:52:00,36.7,14.7,30.09,North,-999,0.0,5.4,40,0.00,,,-99.99,FreeWX 2.04,2013-03-28 12:52:00,
2013-03-28 08:57:00,37.0,14.9,30.09,North,-999,0.0,0.0,40,0.00,,,-99.99,FreeWX 2.04,2013-03-28 12:57:00,
2013-03-28 09:02:00,37.2,14.5,30.09,North,-999,0.0,4.9,39,0.00,,,-99.99,FreeWX 2.04,2013-03-28 13:02:00,
2013-03-28 09:07:00,38.1,16.0,30.12,North,-999,0.0,2.7,40,0.00,,,-99.99,FreeWX 2.04,2013-03-28 13:07:00,
2013-03-28 09:12:00,40.1,17.2,30.12,North,-999,0.0,2.7,39,0.00,,,-99.99,FreeWX 2.04,2013-03-28 13:12:00,
2013-03-28 09:17:00,39.7,13.1,30.12,North,-999,0.0,6.9,33,0.00,,,-99.99,FreeWX 2.04,2013-03-28 13:17:00,
2013-03-28 09:22:00,39.6,12.9,30.12,North,-999,0.0,4.0,33,0.00,,,-99.99,FreeWX 2.04,2013-03-28 13:22:00,
2013-03-28 09:27:00,39.6,12.9,30.12,North,-999,0.0,4.9,33,0.00,,,-99.99,FreeWX 2.04,2013-03-28 13:27:00,
2013-03-28 09:32:00,39.9,12.6,30.12,North,-999,0.0,3.1,32,0.00,,,-99.99,FreeWX 2.04,2013-03-28 13:32:00,
2013-03-28 09:37:00,39.6,12.2,30.12,North,-999,0.0,0.0,32,0.00,,,-99.99,FreeWX 2.04,2013-03-28 13:37:00,
2013-03-28 09:42:00,39.6,12.2,30.12,North,-999,0.0,0.0,32,0.00,,,-99.99,FreeWX 2.04,2013-03-28 13:42:00,
2013-03-28 09:47:00,40.1,13.3,30.12,North,-999,0.0,2.7,33,0.00,,,-99.99,FreeWX 2.04,2013-03-28 13:47:00,
2013-03-28 09:52:00,40.6,13.1,30.12,North,-999,0.0,0.0,32,0.00,,,-99.99,FreeWX 2.04,2013-03-28 13:52:00,
2013-03-28 09:57:00,41.2,12.9,30.12,North,-999,0.0,6.7,31,0.00,,,-99.99,FreeWX 2.04,2013-03-28 13:57:00,
2013-03-28 10:02:00,42.4,14.0,30.12,North,-999,0.0,4.5,31,0.00,,,-99.99,FreeWX 2.04,2013-03-28 14:02:00,
2013-03-28 10:12:00,43.9,13.6,30.12,North,-999,0.0,0.0,29,0.00,,,-99.99,FreeWX 2.04,2013-03-28 14:12:00,
2013-03-28 10:17:00,43.5,13.5,30.12,North,-999,0.0,3.6,29,0.00,,,-99.99,FreeWX 2.04,2013-03-28 14:17:00,
2013-03-28 10:22:00,43.9,12.9,30.12,North,-999,0.0,0.0,28,0.00,,,-99.99,FreeWX 2.04,2013-03-28 14:22:00,
2013-03-28 10:27:00,44.2,13.3,30.12,North,-999,0.0,3.6,28,0.00,,,-99.99,FreeWX 2.04,2013-03-28 14:27:00,
2013-03-28 10:32:00,44.6,13.5,30.12,North,-999,0.0,5.4,28,0.00,,,-99.99,FreeWX 2.04,2013-03-28 14:32:00,
2013-03-28 10:37:00,44.6,13.5,30.12,North,-999,0.0,0.0,28,0.00,,,-99.99,FreeWX 2.04,2013-03-28 14:37:00,
2013-03-28 10:42:00,45.1,14.0,30.12,North,-999,0.0,5.8,28,0.00,,,-99.99,FreeWX 2.04,2013-03-28 14:42:00,
2013-03-28 10:47:00,46.0,14.0,30.12,North,-999,0.0,3.6,27,0.00,,,-99.99,FreeWX 2.04,2013-03-28 14:47:00,
2013-03-28 10:52:00,47.7,15.3,30.12,North,-999,0.0,4.0,27,0.00,,,-99.99,FreeWX 2.04,2013-03-28 14:52:00,
2013-03-28 10:57:00,48.6,15.3,30.12,North,-999,0.0,4.9,26,0.00,,,-99.99,FreeWX 2.04,2013-03-28 14:57:00,
2013-03-28 11:02:00,48.7,13.6,30.12,North,-999,0.0,7.4,24,0.00,,,-99.99,FreeWX 2.04,2013-03-28 15:02:00,
2013-03-28 11:07:00,48.2,13.1,30.12,West,259,1.0,6.3,24,0.00,,,-99.99,FreeWX 2.04,2013-03-28 15:07:00,
2013-03-28 11:12:00,46.8,11.8,30.12,WNW,285,1.0,5.4,24,0.00,,,-99.99,FreeWX 2.04,2013-03-28 15:12:00,
2013-03-28 11:17:00,47.3,12.4,30.12,North,-999,0.0,4.0,24,0.00,,,-99.99,FreeWX 2.04,2013-03-28 15:17:00,
2013-03-28 11:22:00,48.0,12.9,30.12,North,-999,0.0,5.4,24,0.00,,,-99.99,FreeWX 2.04,2013-03-28 15:22:00,
2013-03-28 11:27:00,48.6,10.4,30.12,West,265,1.0,5.4,21,0.00,,,-99.99,FreeWX 2.04,2013-03-28 15:27:00,
2013-03-28 11:32:00,49.1,10.9,30.12,WNW,288,1.0,6.9,21,0.00,,,-99.99,FreeWX 2.04,2013-03-28 15:32:00,
2013-03-28 11:38:00,49.1,10.9,30.12,North,-999,0.0,2.7,21,0.00,,,-99.99,FreeWX 2.04,2013-03-28 15:38:00,
2013-03-28 11:43:00,49.6,11.3,30.12,North,-999,0.0,5.4,21,0.00,,,-99.99,FreeWX 2.04,2013-03-28 15:43:00,
2013-03-28 11:48:00,49.1,10.9,30.12,North,-999,0.0,4.5,21,0.00,,,-99.99,FreeWX 2.04,2013-03-28 15:48:00,
2013-03-28 11:53:00,48.4,10.2,30.12,NNE,19,1.0,6.7,21,0.00,,,-99.99,FreeWX 2.04,2013-03-28 15:53:00,
2013-03-28 11:58:00,48.6,8.2,30.12,ENE,67,1.0,6.3,19,0.00,,,-99.99,FreeWX 2.04,2013-03-28 15:58:00,
2013-03-28 12:05:00,48.0,7.7,30.12,NE,40,1.0,4.0,19,0.00,,,-99.99,FreeWX 2.04,2013-03-28 16:05:00,
2013-03-28 12:10:00,48.0,7.7,30.12,North,357,1.0,5.8,19,0.00,,,-99.99,FreeWX 2.04,2013-03-28 16:10:00,
2013-03-28 12:15:00,48.9,8.4,30.12,NE,42,1.0,9.2,19,0.00,,,-99.99,FreeWX 2.04,2013-03-28 16:15:00,
2013-03-28 12:20:00,49.8,9.3,30.12,NNE,21,1.0,3.1,19,0.00,,,-99.99,FreeWX 2.04,2013-03-28 16:20:00,
2013-03-28 12:25:00,49.8,9.3,30.12,NNW,343,1.0,6.9,19,0.00,,,-99.99,FreeWX 2.04,2013-03-28 16:25:00,
2013-03-28 12:30:00,49.3,8.8,30.12,NE,48,2.0,6.9,19,0.00,,,-99.99,FreeWX 2.04,2013-03-28 16:30:00,
2013-03-28 12:35:00,49.6,11.3,30.12,East,87,1.0,4.9,21,0.00,,,-99.99,FreeWX 2.04,2013-03-28 16:35:00,
2013-03-28 12:40:00,49.3,10.9,30.12,North,-999,0.0,0.0,21,0.00,,,-99.99,FreeWX 2.04,2013-03-28 16:40:00,
2013-03-28 12:45:00,50.0,11.7,30.12,North,-999,0.0,4.5,21,0.00,,,-99.99,FreeWX 2.04,2013-03-28 16:45:00,
2013-03-28 12:50:00,50.2,11.8,30.12,North,-999,0.0,4.5,21,0.00,,,-99.99,FreeWX 2.04,2013-03-28 16:50:00,
2013-03-28 12:57:00,50.7,12.2,30.12,North,-999,0.0,5.4,21,0.00,,,-99.99,FreeWX 2.04,2013-03-28 16:57:00,
2013-03-28 13:05:00,49.5,14.2,30.12,North,-999,0.0,3.1,24,0.00,,,-99.99,FreeWX 2.04,2013-03-28 17:05:00,
2013-03-28 13:10:00,49.8,14.5,30.12,ESE,117,1.0,4.9,24,0.00,,,-99.99,FreeWX 2.04,2013-03-28 17:10:00,
2013-03-28 13:15:00,52.0,18.1,30.12,SE,137,1.0,4.0,26,0.00,,,-99.99,FreeWX 2.04,2013-03-28 17:15:00,
2013-03-28 13:20:00,53.4,16.5,30.12,North,-999,0.0,3.1,23,0.00,,,-99.99,FreeWX 2.04,2013-03-28 17:20:00,
2013-03-28 13:25:00,51.8,13.1,30.12,North,-999,0.0,6.3,21,0.00,,,-99.99,FreeWX 2.04,2013-03-28 17:25:00,
2013-03-28 13:30:00,49.8,11.5,30.12,East,101,1.0,5.4,21,0.00,,,-99.99,FreeWX 2.04,2013-03-28 17:30:00,
2013-03-28 13:35:00,48.9,13.8,30.12,North,-999,0.0,5.4,24,0.00,,,-99.99,FreeWX 2.04,2013-03-28 17:35:00,
2013-03-28 13:40:00,49.1,13.8,30.12,ESE,106,1.0,5.4,24,0.00,,,-99.99,FreeWX 2.04,2013-03-28 17:40:00,
2013-03-28 13:45:00,50.0,14.7,30.12,North,-999,0.0,3.1,24,0.00,,,-99.99,FreeWX 2.04,2013-03-28 17:45:00,
2013-03-28 13:50:00,50.9,15.4,30.12,North,-999,0.0,3.6,24,0.00,,,-99.99,FreeWX 2.04,2013-03-28 17:50:00,
2013-03-28 13:55:00,52.9,18.0,30.12,North,-999,0.0,4.0,25,0.00,,,-99.99,FreeWX 2.04,2013-03-28 17:55:00,
2013-03-28 14:00:00,54.1,17.2,30.12,North,-999,0.0,3.1,23,0.00,,,-99.99,FreeWX 2.04,2013-03-28 18:00:00,
2013-03-28 14:05:00,54.9,16.7,30.12,North,-999,0.0,3.6,22,0.00,,,-99.99,FreeWX 2.04,2013-03-28 18:05:00,
2013-03-28 14:10:00,52.9,12.9,30.12,North,-999,0.0,4.5,20,0.00,,,-99.99,FreeWX 2.04,2013-03-28 18:10:00,
2013-03-28 14:15:00,52.9,16.2,30.12,North,-999,0.0,4.0,23,0.00,,,-99.99,FreeWX 2.04,2013-03-28 18:15:00,
2013-03-28 14:20:00,53.4,16.5,30.12,North,-999,0.0,4.9,23,0.00,,,-99.99,FreeWX 2.04,2013-03-28 18:20:00,
2013-03-28 14:25:00,53.2,16.3,30.12,South,183,1.0,5.4,23,0.00,,,-99.99,FreeWX 2.04,2013-03-28 18:25:00,
2013-03-28 14:30:00,53.4,16.5,30.12,South,185,1.0,5.4,23,0.00,,,-99.99,FreeWX 2.04,2013-03-28 18:30:00,
2013-03-28 14:35:00,53.8,16.9,30.12,South,189,1.0,4.0,23,0.00,,,-99.99,FreeWX 2.04,2013-03-28 18:35:00,
2013-03-28 14:40:00,53.8,16.9,30.12,North,-999,0.0,5.4,23,0.00,,,-99.99,FreeWX 2.04,2013-03-28 18:40:00,
2013-03-28 14:45:00,54.0,17.1,30.12,North,-999,0.0,4.0,23,0.00,,,-99.99,FreeWX 2.04,2013-03-28 18:45:00,
2013-03-28 14:50:00,54.1,17.2,30.12,North,-999,0.0,0.0,23,0.00,,,-99.99,FreeWX 2.04,2013-03-28 18:50:00,
2013-03-28 14:55:00,54.7,16.5,30.12,North,-999,0.0,4.5,22,0.00,,,-99.99,FreeWX 2.04,2013-03-28 18:55:00,
2013-03-28 15:00:00,54.9,16.7,30.12,North,-999,0.0,4.5,22,0.00,,,-99.99,FreeWX 2.04,2013-03-28 19:00:00,
2013-03-28 15:05:00,54.5,16.5,30.09,North,-999,0.0,0.0,22,0.00,,,-99.99,FreeWX 2.04,2013-03-28 19:05:00,
2013-03-28 15:10:00,54.5,17.4,30.09,North,-999,0.0,5.8,23,0.00,,,-99.99,FreeWX 2.04,2013-03-28 19:10:00,
2013-03-28 15:15:00,53.4,16.5,30.09,South,170,1.0,4.5,23,0.00,,,-99.99,FreeWX 2.04,2013-03-28 19:15:00,
2013-03-28 15:20:00,53.6,16.7,30.09,SSW,195,1.0,3.6,23,0.00,,,-99.99,FreeWX 2.04,2013-03-28 19:20:00,
2013-03-28 15:25:00,52.5,13.8,30.09,South,178,1.0,5.4,21,0.00,,,-99.99,FreeWX 2.04,2013-03-28 19:25:00,
2013-03-28 15:30:00,52.2,15.4,30.09,SSE,156,2.0,5.4,23,0.00,,,-99.99,FreeWX 2.04,2013-03-28 19:30:00,
2013-03-28 15:35:00,52.0,15.4,30.09,SSE,164,1.0,5.8,23,0.00,,,-99.99,FreeWX 2.04,2013-03-28 19:35:00,
2013-03-28 15:40:00,51.8,15.3,30.09,SSE,166,1.0,4.9,23,0.00,,,-99.99,FreeWX 2.04,2013-03-28 19:40:00,
2013-03-28 15:45:00,51.8,18.0,30.09,SSE,167,1.0,5.8,26,0.00,,,-99.99,FreeWX 2.04,2013-03-28 19:45:00,
2013-03-28 15:50:00,51.4,14.9,30.09,South,169,1.0,6.7,23,0.00,,,-99.99,FreeWX 2.04,2013-03-28 19:50:00,
2013-03-28 15:55:00,52.0,18.1,30.09,North,-999,0.0,4.5,26,0.00,,,-99.99,FreeWX 2.04,2013-03-28 19:55:00,
2013-03-28 16:00:00,52.7,18.9,30.09,North,-999,0.0,4.0,26,0.00,,,-99.99,FreeWX 2.04,2013-03-28 20:00:00,
2013-03-28 16:05:00,53.2,19.2,30.09,North,-999,0.0,4.9,26,0.00,,,-99.99,FreeWX 2.04,2013-03-28 20:05:00,
2013-03-28 16:10:00,53.2,18.3,30.09,South,189,1.0,4.0,25,0.00,,,-99.99,FreeWX 2.04,2013-03-28 20:10:00,
2013-03-28 16:15:00,52.9,18.0,30.09,North,-999,0.0,4.5,25,0.00,,,-99.99,FreeWX 2.04,2013-03-28 20:15:00,
2013-03-28 16:20:00,51.8,18.0,30.09,North,-999,0.0,4.5,26,0.00,,,-99.99,FreeWX 2.04,2013-03-28 20:20:00,
2013-03-28 16:25:00,51.6,17.8,30.09,North,-999,0.0,4.5,26,0.00,,,-99.99,FreeWX 2.04,2013-03-28 20:25:00,
2013-03-28 16:30:00,51.4,17.8,30.09,North,-999,0.0,4.9,26,0.00,,,-99.99,FreeWX 2.04,2013-03-28 20:30:00,
2013-03-28 16:35:00,51.4,17.8,30.09,North,-999,0.0,0.0,26,0.00,,,-99.99,FreeWX 2.04,2013-03-28 20:35:00,
2013-03-28 16:40:00,51.8,18.0,30.09,North,-999,0.0,0.0,26,0.00,,,-99.99,FreeWX 2.04,2013-03-28 20:40:00,
2013-03-28 16:45:00,51.8,18.0,30.09,North,-999,0.0,4.9,26,0.00,,,-99.99,FreeWX 2.04,2013-03-28 20:45:00,
2013-03-28 16:50:00,50.7,15.3,30.09,North,-999,0.0,4.9,24,0.00,,,-99.99,FreeWX 2.04,2013-03-28 20:50:00,
2013-03-28 16:55:00,48.7,15.4,30.09,North,-999,0.0,3.6,26,0.00,,,-99.99,FreeWX 2.04,2013-03-28 20:55:00,
2013-03-28 17:00:00,49.3,16.7,30.09,North,-999,0.0,0.0,27,0.00,,,-99.99,FreeWX 2.04,2013-03-28 21:00:00,
2013-03-28 17:05:00,50.0,17.4,30.09,North,-999,0.0,4.5,27,0.00,,,-99.99,FreeWX 2.04,2013-03-28 21:05:00,
2013-03-28 17:10:00,50.4,17.6,30.09,North,-999,0.0,2.7,27,0.00,,,-99.99,FreeWX 2.04,2013-03-28 21:10:00,
2013-03-28 17:15:00,50.2,17.4,30.09,North,-999,0.0,3.6,27,0.00,,,-99.99,FreeWX 2.04,2013-03-28 21:15:00,
2013-03-28 17:20:00,49.6,16.2,30.09,North,-999,0.0,4.0,26,0.00,,,-99.99,FreeWX 2.04,2013-03-28 21:20:00,
2013-03-28 17:25:00,49.1,16.5,30.09,North,-999,0.0,3.6,27,0.00,,,-99.99,FreeWX 2.04,2013-03-28 21:25:00,
2013-03-28 17:30:00,47.8,15.4,30.09,North,-999,0.0,4.9,27,0.00,,,-99.99,FreeWX 2.04,2013-03-28 21:30:00,
2013-03-28 17:35:00,47.5,15.3,30.09,North,-999,0.0,0.0,27,0.00,,,-99.99,FreeWX 2.04,2013-03-28 21:35:00,
2013-03-28 17:40:00,46.9,14.7,30.09,North,-999,0.0,3.1,27,0.00,,,-99.99,FreeWX 2.04,2013-03-28 21:40:00,
2013-03-28 17:55:00,46.8,15.4,30.09,North,-999,0.0,0.0,28,0.00,,,-99.99,FreeWX 2.04,2013-03-28 21:55:00,
2013-03-28 18:00:00,46.4,15.1,30.09,North,-999,0.0,0.0,28,0.00,,,-99.99,FreeWX 2.04,2013-03-28 22:00:00,
2013-03-28 18:05:00,45.9,14.5,30.09,North,-999,0.0,0.0,28,0.00,,,-99.99,FreeWX 2.04,2013-03-28 22:05:00,
2013-03-28 18:10:00,45.5,14.4,30.09,North,-999,0.0,2.7,28,0.00,,,-99.99,FreeWX 2.04,2013-03-28 22:10:00,
2013-03-28 18:15:00,45.0,13.8,30.09,North,-999,0.0,0.0,28,0.00,,,-99.99,FreeWX 2.04,2013-03-28 22:15:00,
2013-03-28 18:20:00,44.2,14.0,30.09,North,-999,0.0,0.0,29,0.00,,,-99.99,FreeWX 2.04,2013-03-28 22:20:00,
2013-03-28 18:25:00,43.7,13.6,30.09,North,-999,0.0,0.0,29,0.00,,,-99.99,FreeWX 2.04,2013-03-28 22:25:00,
2013-03-28 18:30:00,42.6,13.5,30.09,North,-999,0.0,3.1,30,0.00,,,-99.99,FreeWX 2.04,2013-03-28 22:30:00,
2013-03-28 18:35:00,42.3,13.1,30.09,North,-999,0.0,0.0,30,0.00,,,-99.99,FreeWX 2.04,2013-03-28 22:35:00,
2013-03-28 18:40:00,41.7,13.3,30.09,North,-999,0.0,0.0,31,0.00,,,-99.99,FreeWX 2.04,2013-03-28 22:40:00,
2013-03-28 18:45:00,41.2,12.9,30.09,North,-999,0.0,0.0,31,0.00,,,-99.99,FreeWX 2.04,2013-03-28 22:45:00,
2013-03-28 18:50:00,40.6,13.8,30.09,North,-999,0.0,0.0,33,0.00,,,-99.99,FreeWX 2.04,2013-03-28 22:50:00,
2013-03-28 18:55:00,40.5,14.4,30.09,North,-999,0.0,0.0,34,0.00,,,-99.99,FreeWX 2.04,2013-03-28 22:55:00,
2013-03-28 19:00:00,40.3,14.2,30.09,North,-999,0.0,0.0,34,0.00,,,-99.99,FreeWX 2.04,2013-03-28 23:00:00,
2013-03-28 19:05:00,39.9,14.5,30.09,North,-999,0.0,0.0,35,0.00,,,-99.99,FreeWX 2.04,2013-03-28 23:05:00,
2013-03-28 19:10:00,39.4,14.7,30.09,North,-999,0.0,0.0,36,0.00,,,-99.99,FreeWX 2.04,2013-03-28 23:10:00,
2013-03-28 19:15:00,38.7,14.7,30.09,North,-999,0.0,0.0,37,0.00,,,-99.99,FreeWX 2.04,2013-03-28 23:15:00,
2013-03-28 19:20:00,38.5,14.5,30.12,North,-999,0.0,0.0,37,0.00,,,-99.99,FreeWX 2.04,2013-03-28 23:20:00,
2013-03-28 19:25:00,38.3,14.9,30.12,North,-999,0.0,0.0,38,0.00,,,-99.99,FreeWX 2.04,2013-03-28 23:25:00,
2013-03-28 19:30:00,37.9,14.5,30.12,North,-999,0.0,0.0,38,0.00,,,-99.99,FreeWX 2.04,2013-03-28 23:30:00,
2013-03-28 19:35:00,37.0,14.4,30.12,North,-999,0.0,0.0,39,0.00,,,-99.99,FreeWX 2.04,2013-03-28 23:35:00,
2013-03-28 19:40:00,36.7,14.0,30.12,North,-999,0.0,0.0,39,0.00,,,-99.99,FreeWX 2.04,2013-03-28 23:40:00,
2013-03-28 19:45:00,36.5,14.0,30.12,North,-999,0.0,0.0,39,0.00,,,-99.99,FreeWX 2.04,2013-03-28 23:45:00,
2013-03-28 19:50:00,36.3,14.4,30.12,North,-999,0.0,0.0,40,0.00,,,-99.99,FreeWX 2.04,2013-03-28 23:50:00,
2013-03-28 19:55:00,36.0,14.0,30.12,North,-999,0.0,0.0,40,0.00,,,-99.99,FreeWX 2.04,2013-03-28 23:55:00,
2013-03-28 20:00:00,35.4,13.5,30.12,North,-999,0.0,0.0,40,0.00,,,-99.99,FreeWX 2.04,2013-03-29 00:00:00,
2013-03-28 20:05:00,35.1,13.3,30.12,North,-999,0.0,0.0,40,0.00,,,-99.99,FreeWX 2.04,2013-03-29 00:05:00,
2013-03-28 20:10:00,34.9,13.1,30.12,North,-999,0.0,0.0,40,0.00,,,-99.99,FreeWX 2.04,2013-03-29 00:10:00,
2013-03-28 20:15:00,34.5,13.3,30.12,North,-999,0.0,0.0,41,0.00,,,-99.99,FreeWX 2.04,2013-03-29 00:15:00,
2013-03-28 20:20:00,34.3,13.1,30.12,North,-999,0.0,0.0,41,0.00,,,-99.99,FreeWX 2.04,2013-03-29 00:20:00,
2013-03-28 20:25:00,33.8,12.6,30.12,North,-999,0.0,0.0,41,0.00,,,-99.99,FreeWX 2.04,2013-03-29 00:25:00,
2013-03-28 20:30:00,33.6,12.4,30.12,North,-999,0.0,0.0,41,0.00,,,-99.99,FreeWX 2.04,2013-03-29 00:30:00,
2013-03-28 20:36:00,33.3,12.2,30.12,North,-999,0.0,0.0,41,0.00,,,-99.99,FreeWX 2.04,2013-03-29 00:36:00,
2013-03-28 20:41:00,33.1,12.0,30.12,North,-999,0.0,0.0,41,0.00,,,-99.99,FreeWX 2.04,2013-03-29 00:41:00,
2013-03-28 20:46:00,32.5,11.5,30.12,North,-999,0.0,0.0,41,0.00,,,-99.99,FreeWX 2.04,2013-03-29 00:46:00,
2013-03-28 20:51:00,32.2,11.1,30.12,North,-999,0.0,0.0,41,0.00,,,-99.99,FreeWX 2.04,2013-03-29 00:51:00,
2013-03-28 20:56:00,32.0,11.5,30.12,North,-999,0.0,0.0,42,0.00,,,-99.99,FreeWX 2.04,2013-03-29 00:56:00,
2013-03-28 21:01:00,31.8,11.3,30.12,North,-999,0.0,0.0,42,0.00,,,-99.99,FreeWX 2.04,2013-03-29 01:01:00,
2013-03-28 21:06:00,31.3,10.9,30.12,North,-999,0.0,0.0,42,0.00,,,-99.99,FreeWX 2.04,2013-03-29 01:06:00,
2013-03-28 21:11:00,31.3,11.5,30.12,North,-999,0.0,0.0,43,0.00,,,-99.99,FreeWX 2.04,2013-03-29 01:11:00,
2013-03-28 21:16:00,30.7,11.5,30.12,North,-999,0.0,0.0,44,0.00,,,-99.99,FreeWX 2.04,2013-03-29 01:16:00,
2013-03-28 21:21:00,30.4,11.7,30.12,North,-999,0.0,0.0,45,0.00,,,-99.99,FreeWX 2.04,2013-03-29 01:21:00,
2013-03-28 21:26:00,30.4,12.6,30.12,North,-999,0.0,0.0,47,0.00,,,-99.99,FreeWX 2.04,2013-03-29 01:26:00,
2013-03-28 21:31:00,30.2,12.9,30.12,North,-999,0.0,0.0,48,0.00,,,-99.99,FreeWX 2.04,2013-03-29 01:31:00,
2013-03-28 21:36:00,30.0,13.6,30.12,North,-999,0.0,0.0,50,0.00,,,-99.99,FreeWX 2.04,2013-03-29 01:36:00,
2013-03-28 21:41:00,29.7,13.3,30.12,North,-999,0.0,0.0,50,0.00,,,-99.99,FreeWX 2.04,2013-03-29 01:41:00,
2013-03-28 21:46:00,29.7,14.2,30.12,North,-999,0.0,0.0,52,0.00,,,-99.99,FreeWX 2.04,2013-03-29 01:46:00,